Location: 3 Angels Observatory
(30.5437°N, 88.5068°W)
Time: 22:41:04
(UTC-05:00)

Daily predictions for brighter satellites

Satellite Brightness Start Highest point End
(mag) Time Altitude Azimuth Time Altitude Azimuth Time Altitude Azimuth
CZ-4C R/B 3.0 19:07:12 10° SW 19:12:13 52° WNW 19:17:47 10° NNE
OAO 3 Rocket 3.2 19:08:34 10° WSW 19:13:20 88° NNW 19:18:11 10° ENE
Meteor 1-29 4.1 19:15:49 10° NE 19:18:40 23° E 19:21:30 10° SSE
ATLAS CENTAUR R/B 2.8 19:17:32 10° N 19:20:31 19° NE 19:23:05 11° E
Cosmos 2333 Rocket 3.5 19:15:02 10° SW 19:20:31 46° WNW 19:26:04 10° N
Yuri Rocket 3.7 19:17:05 10° W 19:21:13 45° SSW 19:25:12 10° ESE
GPS 2-05 Rocket1 2.7 19:19:24 10° WNW 19:22:45 82° NNE 19:25:56 12° ESE
Atlas Centaur 2 3.1 19:15:56 10° W 19:24:35 88° S 19:31:49 13° E
Cosmos 1484 Rocket 3.1 19:20:51 10° S 19:24:36 70° W 19:28:26 10° NNW
USA 215 3.8 19:18:58 10° NNE 19:25:22 61° NW 19:31:46 10° WSW
COSMO-SKYMED 1 4.4 19:25:38 10° N 19:29:36 36° WNW 19:33:35 10° SW
Cosmos 2034 Rocket 4.5 19:27:47 10° SSE 19:33:23 37° E 19:39:03 10° NNE
SAR-Lupe-4 3.6 19:30:24 10° S 19:33:57 84° WSW 19:37:32 10° NNW
Helios 1A 3.7 19:31:06 10° SE 19:34:48 32° ENE 19:38:31 10° N
Cosmos 1464 Rocket 4.1 19:31:05 10° SSE 19:37:12 56° E 19:43:16 10° NNE
Cosmos 1844 4.3 19:33:42 10° NNW 19:39:09 59° WSW 19:44:35 10° S
OAO 1 Rocket 4.4 19:37:10 10° WSW 19:42:33 90° SSE 19:46:47 17° ENE
SEDSat Delta rocket 4.1 19:36:21 10° WSW 19:43:06 81° SSE 19:48:22 18° E
Cosmos 1766 3.2 19:39:45 10° S 19:43:40 82° E 19:47:38 10° N
GPS 2-04 Rocket1 3.7 19:45:05 10° SSW 19:47:59 24° SSE 19:48:47 22° SE
SeaSat 1 2.8 19:44:32 10° NE 19:49:10 40° ESE 19:53:45 10° S
Cosmos 2237 Rocket 4.3 19:46:46 10° WSW 19:51:38 29° WNW 19:56:32 10° N
Cosmos 1766 Rocket 4.2 19:48:14 10° NNE 19:52:11 32° E 19:54:05 23° SE
ASTRO E2 2.6 19:48:10 10° W 19:52:12 89° S 19:54:17 28° E
Cosmos 192 4.2 19:47:17 10° S 19:52:13 78° ESE 19:57:11 10° NNE
NOSS 3-2 (A) 3.6 19:46:44 10° SW 19:52:41 74° WNW 19:59:05 10° NNE
Cosmos 1953 2.5 19:51:45 10° SSE 19:55:34 45° E 19:59:23 10° NNE
SWIFT 4.2 19:53:09 10° SW 19:56:12 20° S 19:58:01 15° SSE
CZ-4B DEB 4.2 19:57:57 23° NE 19:57:57 23° NE 19:59:53 10° NNE
CZ-2D R/B 4.4 20:01:16 26° ENE 20:01:16 26° ENE 20:04:03 10° NNE
Abrixas 4.5 20:00:39 10° S 20:01:46 17° S 20:01:46 17° S
ATLAS 5 CENTAUR R/B 1.7 20:02:56 10° SSW 20:07:35 88° WNW 20:12:36 10° NNE
SL-16 R/B 3.1 20:03:49 10° SW 20:09:18 50° WNW 20:14:50 10° N
Cosmos 724 4.2 20:03:33 10° SSW 20:09:20 65° ESE 20:15:16 10° NNE
TIMED 4.5 20:07:22 10° NNW 20:11:45 83° WSW 20:15:07 17° SSE
Spot 2 Rocket 3.6 20:08:00 10° S 20:13:02 76° WSW 20:18:05 10° NNW
Cosmos-2242 2.9 20:12:20 10° S 20:16:40 78° E 20:21:02 10° N
Abrixas rocket 3.8 20:15:01 10° WNW 20:17:59 30° SW 20:18:56 25° SSW
Cosmos 1805 3.2 20:14:49 10° S 20:18:43 84° W 20:22:40 10° N
Resurs 01 Rocket 2.1 20:15:20 10° S 20:19:43 60° W 20:24:07 10° NNW
Cosmos 1076 Rocket 3.4 20:15:40 10° N 20:20:00 86° W 20:23:19 17° S
Cosmos 2056 Rocket 3.8 20:14:47 10° NNW 20:20:12 71° WSW 20:25:34 10° S
ASC 2 Rocket 3.8 20:16:41 10° WSW 20:20:21 33° S 20:20:42 32° S
H-2A R/B 3.4 20:23:12 41° NNE 20:23:12 41° NNE 20:26:04 10° N
Resurs 1-3 3.9 20:21:55 11° S 20:26:05 67° W 20:30:27 10° NNW
Timation 1 Rocket 4.2 20:21:51 10° NNW 20:27:47 68° ENE 20:29:45 43° SE
ALOS 2.1 20:26:20 37° SSE 20:28:11 83° ENE 20:32:51 10° N
Cosmos 1408 Rocket 3.6 20:24:31 10° N 20:28:53 77° W 20:30:56 30° S
NOSS 3-2 (C) 4.3 20:23:19 10° SW 20:29:06 49° WNW 20:35:20 10° NNE
Delta 168 4.4 20:29:27 10° WSW 20:35:03 52° SSE 20:36:50 43° SE
Cosmos 1758 4.3 20:31:39 10° SSW 20:35:33 47° W 20:39:31 10° N
CENTAUR R/B 3.6 20:30:21 10° S 20:32:48 24° SSE 20:32:48 24° SSE
Cosmos 2278 Rocket 4.2 20:36:15 10° NW 20:40:49 26° WSW 20:45:22 10° SSW
ASTEX 1 3.4 20:36:43 10° N 20:41:38 80° W 20:45:33 16° SSW
Cosmos 2297 4.2 20:38:03 10° NNW 20:43:35 56° WSW 20:46:50 24° S
FENGYUN 3A 3.9 20:44:35 29° S 20:47:21 68° WSW 20:52:43 10° NNW
Cosmos 1603 4.3 20:50:36 10° SW 20:56:11 56° WNW 21:01:50 10° N
Nadezhda 4 Rocket 3.9 20:50:40 10° N 20:56:57 84° W 20:58:29 54° S
OAO 3 Rocket 3.9 20:52:27 10° W 20:56:35 47° NNW 20:56:35 47° NNW
ATLAS CENTAUR R/B 3.2 20:56:15 10° NW 20:59:27 24° WSW 20:59:27 24° WSW
Cosmos 1092 Rocket 4.0 20:54:47 10° N 21:00:04 63° NNE 21:00:04 63° NNE
Cosmos 2369 Rocket 4.3 20:57:07 10° N 20:58:21 15° NNE 20:58:21 15° NNE
Cosmos 1634 Rocket 4.4 21:09:55 52° N 21:09:55 52° N 21:14:30 10° N
Atlas Centaur 2 3.0 21:06:18 10° W 21:14:25 60° SSW 21:14:28 60° SSW
Cosmos 1452 Rocket 4.4 21:11:58 10° NNW 21:16:24 46° W 21:16:24 46° W
SEDSat Delta rocket 4.5 21:23:09 10° W 21:28:30 57° WNW 21:28:30 57° WNW
